IRIDIUM 33 DEB, 34145

Orbit data source: Space-Track

IRIDIUM 33 DEB, 34145 is space debris in LEO originally from a launch on Sun, 14 Sep 1997 UTC launched from the Tyuratam Missile And Space Complex (TTMTR). The debris from Iridium 33, an American commercial communications satellite, has been tracked extensively since its accidental collision with the defunct Russian satellite Cosmos 2251 in 2009. This event, occurring at high speed in low Earth orbit (LEO), generated thousands of pieces of space debris, significantly increasing the risk of further collisions. The Iridium 33 debris cloud has impacted space traffic management and orbital debris mitigation strategies, making it a subject of ongoing study in space situational awareness.

Loading next visibility...
Identifier
34145, 1997-051DY
Orbit
LEO
Country
Flag of USUS
Related business
Manufacturer
Unknown
Mission
Spacecraft
Bus & Motor
Unknown
Mass
Unknown
Launch date (UTC)
1997-09-14 (29 years ago)
Launch vehicle
Unknown
Launch site
Tyuratam Missile And Space Complex (TTMTR)
Object type
Payload
Rocket body
Debris
Shape & HBR
Unknown shape, 0.1 m
Radar Cross Section
Small (<0.1 m²)

Expand to show TLE details & history
Last TLE update: 12 hours ago

TLE from 12 hours ago
0 IRIDIUM 33 DEB
1 34145U 97051DY  26208.81955689  .00002751  00000-0  78834-3 0  9996
2 34145  86.2080 231.2226 0054021  65.9269 294.7571 14.43810826909134
Epoch: 2026-07-27T19:40Z
TLE epoch observation values (Epoch: 2026-07-27T19:40:09.715Z)
Latitude
0.00004°
Longitude
-9.31553°
Altitude
733.049 km
Speed
7.497 km/s
True Right ascension
15h 24m 53s
True Declination
0° 00' 00"
Sunlit
Object was in daylight at epoch
Visualization orbit readout
Latitude
Unknown
Longitude
Unknown
Altitude
Unknown
Speed
Unknown
Apparent Right ascension
Unknown
Apparent Declination
Unknown
Sunlit
N/A
Visualization observer readout
Local Sidereal Time
21:18:07
Azimuth
Unknown
Elevation
Unknown
Doppler factor
Unknown
Orbital elements
Apogee altitude
781.358 km
Perigee altitude
704.421 km
Semi-major axis
7,121.027 km
Eccentricity
0.0054
Inclination
86.208°
RAAN
231.2226°
Arg. of periapsis
65.9269°
True anomaly
294.19337°
Mean anomaly
294.7571°
Eccentric anomaly
294.4754°
Mean motion
3.61185 °/min
Orbital period
99.67 mins
BSTAR
0.00078834
Loading maneuver chart data...
Computing Atmospheric mass density...
Loading historical data...
Loading historical data...
Loading historical data...
Loading historical data...
Loading historical data...
Loading historical data...
Loading historical data...

Documentation

Showing up to 5 results
|